[[{"header":{"parameterUnit":"m.s-1","parameterCategory":1,"la1":30.2991,"la2":30.254,"lo1":-89.0895,"lo2":-89.0444,"dy":0.0017,"dx":0.0017,"nx":28,"ny":28,"refTime":"2025-08-13T21:00:00:Z","depth":0,"parameterNumber":2,"parameterNumberName":"U-component_of_WINDS"},"data":[0,0,0,0,0,0,0,0,0,0,0,0,0,0,0,0,0,0,0,0,0,0,0,0,0,0,0,0,0,0,0,0,0,0,0,0,0,0,0,0,0,0,0,0,0,0,0,0,0,0,0,0,0,0,0,0,0,0,2.0586,2.0585,0,2.0507,2.0506,2.0505,2.0434,2.0433,2.0432,2.0432,2.0348,2.0347,2.0346,0,0,0,0,0,0,0,0,0,0,0,0,0,2.0674,2.0672,2.0586,2.0585,2.0584,2.0507,2.0506,2.0505,2.0434,2.0433,2.0432,2.0431,2.0349,2.0347,2.0346,0,0,0,0,0,0,0,0,0,0,0,0,0,2.0619,2.0672,2.0586,2.0539,2.0534,2.0507,2.0506,2.0505,2.0434,2.0433,2.0432,2.0431,2.0349,2.0347,2.0345,2.0358,0,0,2.0339,2.0338,0,0,0,0,0,0,0,0,2.0622,2.0616,2.0547,2.0542,2.0537,2.0479,2.0507,2.0455,2.0435,2.0472,2.0432,2.043,2.0393,2.0387,2.0375,2.0354,2.035,2.0339,2.0337,2.0336,2.0336,0,0,0,0,0,0,0,2.0626,2.0619,2.0554,2.0546,2.054,2.0522,2.0513,2.0497,2.044,2.0469,2.0464,2.0455,2.039,2.0377,2.0372,2.0349,2.0339,2.0337,2.0335,2.0335,2.0334,2.0335,0,0,0,0,0,0,2.0637,2.0623,2.0557,2.0552,2.0577,2.0522,2.0511,2.0499,2.044,2.043,2.0457,2.0452,2.0381,2.0375,2.0369,2.0379,2.0336,2.0334,2.0333,2.0333,2.0334,2.0336,0,0,0,0,0,0,2.064,2.0632,2.056,2.0586,2.0575,2.0521,2.0508,2.0498,2.0485,2.0431,2.0421,2.0454,2.038,2.0372,2.0361,2.0375,2.0333,2.0331,2.0331,2.0333,2.0335,2.0399,0,0,0,0,0,0,2.0642,2.0633,2.0637,2.0587,2.0574,2.0554,2.0509,2.0497,2.0482,2.0476,2.0426,2.0416,2.0379,2.0365,2.0359,2.0371,2.033,2.033,2.0332,2.0335,2.0395,2.0403,2.0409,0,0,0,0,0,2.0646,2.0658,2.0638,2.063,2.0578,2.0555,2.0547,2.0504,2.0484,2.0487,2.0453,2.0418,2.0376,2.0364,2.0357,2.0369,2.0329,2.0332,2.0334,2.0392,2.0401,2.0409,0,0,0,0,0,0,2.0709,2.065,2.0627,2.0623,2.0595,2.0543,2.0545,2.0515,2.0491,2.0486,2.0433,2.0423,2.0417,2.0393,2.0381,2.0378,2.0348,2.0349,2.0394,2.0402,2.0409,2.0413,2.0328,0,0,0,0,0,2.0723,2.071,2.0658,2.066,2.0647,2.0599,2.0587,2.0557,2.0525,2.0512,2.0476,2.0446,2.0426,2.0413,2.0392,2.0393,2.038,2.0398,2.0405,2.0411,2.0412,2.041,2.0417,2.0345,2.0345,2.0345,0,0,2.0751,2.0717,2.0711,2.0672,2.0646,2.0632,2.0589,2.0576,2.0565,2.0509,2.0496,2.047,2.0433,2.0428,2.0424,2.0407,2.043,2.0415,2.042,2.0417,2.0414,2.0421,2.0427,2.0347,2.0347,2.0347,0,0,2.0794,2.0768,2.0765,2.0742,2.0704,2.0673,2.0673,2.0626,2.0607,2.0594,2.0552,2.0539,2.0505,2.048,2.0463,2.0501,2.0468,2.0496,2.0531,2.053,2.0536,2.054,2.0552,2.0557,2.0498,2.0498,2.0498,0,2.0832,2.081,2.0768,2.0758,2.0742,2.0694,2.0691,2.067,2.0627,2.0617,2.06,2.0557,2.0529,2.0517,2.0527,2.0516,2.0513,2.0499,2.0539,2.0543,2.0547,2.0557,2.0562,2.0502,2.0501,2.0501,2.0501,0,2.0859,2.0845,2.0848,2.0809,2.0794,2.0788,2.0745,2.0735,2.0708,2.0679,2.0666,2.0632,2.0602,2.0598,2.057,2.0583,2.0574,2.0549,2.0516,2.0558,2.0567,2.057,2.0506,2.0505,2.0504,2.0503,0,0,2.0934,2.0876,2.0877,2.0859,2.0816,2.0804,2.0798,2.077,2.0762,2.0736,2.0727,2.0702,2.0679,2.066,2.063,2.063,2.0661,2.0604,2.0603,2.0614,2.0672,2.0689,2.0694,2.0641,2.0642,2.0642,2.0674,0,2.0967,2.0951,2.0915,2.091,2.0897,2.0853,2.0847,2.082,2.0794,2.0778,2.0749,2.0731,2.0703,2.0692,2.069,2.0658,2.0671,2.0655,2.0631,2.063,2.0638,2.0699,2.0716,2.0748,2.0678,2.0678,2.0679,0,2.1003,2.0981,2.0975,2.0935,2.0928,2.0923,2.0896,2.0882,2.0852,2.0833,2.0814,2.0781,2.0771,2.0745,2.0729,2.0719,2.0708,2.0691,2.0692,2.0684,2.0654,2.0691,2.0757,2.076,2.0684,2.0684,2.0683,0,2.1056,2.1025,2.1017,2.1004,2.0958,2.0955,2.0935,2.0904,2.089,2.0867,2.0858,2.0834,2.082,2.0802,2.0764,2.0749,2.0753,2.0723,2.0735,2.0736,2.0735,2.0734,2.0797,2.0733,2.0733,2.0733,2.0733,0,2.1094,2.1092,2.1041,2.1036,2.1033,2.0992,2.099,2.0966,2.0939,2.0928,2.089,2.0881,2.0833,2.0819,2.079,2.0781,2.0776,2.0759,2.075,2.076,2.0762,2.0749,2.0745,2.0734,2.0734,2.0734,2.0734,0,2.115,2.1116,2.1105,2.1064,2.1053,2.1053,2.1016,2.101,2.0984,2.0971,2.0966,2.0924,2.0905,2.0867,2.0837,2.0817,2.0815,2.0802,2.0825,2.0819,2.0832,2.0831,2.0886,2.089,2.0827,2.0828,2.0829,0,2.1176,2.1173,2.1133,2.1124,2.1106,2.1092,2.1079,2.104,2.1028,2.0995,2.0992,2.0971,2.0952,2.0924,2.089,2.0867,2.0852,2.0873,2.0847,2.0858,2.0849,2.0848,2.0847,2.0877,2.0878,2.0878,2.0879,0,2.1223,2.1208,2.1191,2.1169,2.1155,2.1136,2.1114,2.1109,2.1065,2.1053,2.1035,2.102,2.0991,2.097,2.0943,2.0922,2.0893,2.0888,2.0889,2.0897,2.091,2.0901,2.0837,2.0886,2.0885,2.0885,2.0884,2.0884,2.1263,2.1259,2.123,2.1213,2.1194,2.1175,2.1167,2.1142,2.1126,2.11,2.1079,2.1062,2.1033,2.0994,2.0975,2.0961,2.0947,2.0949,2.0949,2.0949,2.0952,2.0916,2.0956,2.0956,2.0956,2.0956,2.0955,0,2.1306,2.1287,2.1272,2.1244,2.1231,2.1209,2.1185,2.1174,2.1161,2.1137,2.112,2.1099,2.1079,2.1045,2.1023,2.1018,2.1004,2.1013,2.1011,2.1006,2.0968,2.0968,2.1024,2.1024,2.1024,2.1024,2.1024,2.1024,2.1327,2.1319,2.1301,2.1283,2.1264,2.1248,2.1236,2.1219,2.12,2.1178,2.1162,2.1142,2.1114,2.109,2.107,2.1061,2.1053,2.1066,2.1052,2.1016,2.1009,2.1003,2.1002,2.1065,2.1066,2.1091,2.1092,2.1092]},{"header":{"parameterUnit":"m.s-1","parameterCategory":1,"la1":30.2991,"la2":30.254,"lo1":-89.0895,"lo2":-89.0444,"dy":0.0017,"dx":0.0017,"nx":28,"ny":28,"refTime":"2025-08-13T21:00:00:Z","depth":0,"parameterNumber":3,"parameterNumberName":"V-component_of_WINDS"},"data":[0,0,0,0,0,0,0,0,0,0,0,0,0,0,0,0,0,0,0,0,0,0,0,0,0,0,0,0,0,0,0,0,0,0,0,0,0,0,0,0,0,0,0,0,0,0,0,0,0,0,0,0,0,0,0,0,0,0,4.2582,4.2583,0,4.2673,4.2674,4.2675,4.269,4.2689,4.2688,4.2688,4.2772,4.2774,4.2777,0,0,0,0,0,0,0,0,0,0,0,0,0,4.2411,4.2414,4.2582,4.2583,4.2584,4.2673,4.2674,4.2675,4.269,4.2689,4.2688,4.2687,4.2771,4.2774,4.2778,0,0,0,0,0,0,0,0,0,0,0,0,0,4.2492,4.2415,4.2582,4.2603,4.2605,4.2672,4.2674,4.2675,4.269,4.2689,4.2688,4.2687,4.277,4.2774,4.2778,4.2828,0,0,4.2792,4.2794,0,0,0,0,0,0,0,0,4.2487,4.2498,4.2598,4.2601,4.2604,4.2669,4.2644,4.2726,4.2691,4.2658,4.2688,4.2686,4.2738,4.2745,4.2764,4.2832,4.2836,4.2792,4.2795,4.2797,4.2798,0,0,0,0,0,0,0,4.2481,4.2494,4.2618,4.26,4.2603,4.2604,4.2614,4.266,4.2703,4.266,4.2662,4.2673,4.2739,4.276,4.2766,4.2837,4.2792,4.2796,4.2799,4.28,4.2948,4.2949,0,0,0,0,0,0,4.2473,4.2489,4.2615,4.262,4.2542,4.2608,4.2619,4.2649,4.2702,4.271,4.2674,4.2673,4.2753,4.2761,4.2769,4.283,4.2797,4.2801,4.2803,4.2946,4.2948,4.2949,0,0,0,0,0,0,4.247,4.2485,4.2611,4.2555,4.2571,4.2612,4.2646,4.2652,4.2672,4.2713,4.2719,4.2688,4.2752,4.2763,4.2813,4.2833,4.2803,4.2807,4.2945,4.2947,4.2949,4.2952,0,0,0,0,0,0,4.2465,4.2483,4.2505,4.2556,4.2574,4.2657,4.2647,4.2654,4.2681,4.2681,4.2727,4.2734,4.2752,4.2807,4.2818,4.2838,4.281,4.2943,4.2946,4.2948,4.295,4.2953,4.2956,0,0,0,0,0,4.2459,4.2501,4.2506,4.2521,4.2603,4.2658,4.2668,4.2691,4.2683,4.2703,4.2728,4.2732,4.2829,4.2812,4.2824,4.2846,4.2942,4.2945,4.2948,4.2948,4.2953,4.2956,0,0,0,0,0,0,4.2448,4.2508,4.2514,4.2575,4.2612,4.2661,4.2687,4.2695,4.2733,4.2731,4.2755,4.2765,4.2814,4.2835,4.2815,4.2896,4.2884,4.289,4.2881,4.2885,4.2888,4.2881,4.2814,0,0,0,0,0,4.2453,4.2496,4.2545,4.2593,4.2612,4.2646,4.2671,4.2686,4.2723,4.2738,4.2767,4.2801,4.2839,4.2863,4.2901,4.2953,4.2962,4.2974,4.2977,4.298,4.2984,4.3011,4.3016,4.2959,4.2959,4.2958,0,0,4.2463,4.2501,4.2526,4.2592,4.2622,4.2663,4.2659,4.2702,4.2732,4.2744,4.2794,4.2816,4.2855,4.2907,4.2931,4.2926,4.3002,4.2984,4.2985,4.2988,4.3014,4.302,4.3025,4.296,4.296,4.296,0,0,4.2503,4.2537,4.258,4.2611,4.2658,4.2681,4.2691,4.2739,4.2755,4.2806,4.2816,4.2849,4.2914,4.2941,4.2964,4.3012,4.3015,4.3023,4.3039,4.3065,4.307,4.3074,4.3089,4.3094,4.3027,4.3027,4.3027,0,4.2508,4.2573,4.2601,4.2644,4.2671,4.2687,4.2729,4.2756,4.2811,4.2828,4.2823,4.2904,4.2932,4.2989,4.3,4.3019,4.3028,4.3017,4.3068,4.3072,4.3076,4.3091,4.3096,4.3028,4.3027,4.3027,4.3027,0,4.2577,4.2621,4.265,4.2706,4.2737,4.2779,4.2809,4.2836,4.2848,4.287,4.292,4.2954,4.2997,4.3012,4.3023,4.307,4.3065,4.3063,4.3052,4.3082,4.3096,4.3102,4.3028,4.3028,4.3028,4.3028,0,0,4.2611,4.2683,4.2693,4.2717,4.277,4.2803,4.2844,4.289,4.2911,4.2948,4.2981,4.3036,4.3035,4.306,4.3073,4.3097,4.313,4.3092,4.3093,4.3096,4.3181,4.3181,4.3187,4.3133,4.3135,4.3136,4.3177,0,4.2655,4.2734,4.2759,4.2823,4.2862,4.2877,4.2913,4.2947,4.2968,4.3002,4.3025,4.3063,4.3059,4.3074,4.3098,4.3121,4.3147,4.3119,4.3161,4.3163,4.315,4.3195,4.3196,4.3233,4.3183,4.3184,4.3185,0,4.2717,4.2758,4.2827,4.2873,4.2891,4.2923,4.2965,4.2999,4.3036,4.305,4.3078,4.309,4.313,4.3118,4.3171,4.3151,4.317,4.3184,4.3186,4.319,4.3174,4.3198,4.3246,4.3251,4.3194,4.3193,4.3192,0,4.2733,4.2805,4.2855,4.2876,4.2932,4.2954,4.2977,4.3014,4.3039,4.3076,4.3091,4.3131,4.3152,4.318,4.3201,4.319,4.3252,4.3242,4.3262,4.3261,4.3273,4.3272,4.3323,4.3288,4.3288,4.3288,4.3288,0,4.2779,4.282,4.2863,4.2894,4.2939,4.2966,4.3008,4.3032,4.3065,4.3097,4.3112,4.3141,4.3168,4.32,4.3216,4.3257,4.3267,4.3277,4.328,4.3275,4.3273,4.3286,4.3284,4.3289,4.3289,4.3289,4.3288,0,4.2804,4.2836,4.2891,4.294,4.2953,4.2983,4.3023,4.3051,4.3074,4.3115,4.3126,4.3159,4.3198,4.3222,4.327,4.3281,4.3325,4.3329,4.3313,4.3315,4.3333,4.333,4.3393,4.3402,4.3362,4.3363,4.3363,0,4.2831,4.2863,4.2916,4.294,4.2965,4.3004,4.303,4.3057,4.3083,4.3128,4.315,4.319,4.3224,4.3284,4.331,4.3347,4.335,4.3369,4.3355,4.3348,4.3348,4.3345,4.3347,4.3371,4.3371,4.3372,4.3372,0,4.2873,4.2887,4.2927,4.2971,4.3003,4.3038,4.3073,4.3091,4.3124,4.3152,4.3193,4.3219,4.3269,4.3308,4.3346,4.3367,4.3373,4.3377,4.3383,4.3377,4.3366,4.337,4.3318,4.3375,4.3374,4.3374,4.3374,4.3374,4.2899,4.2928,4.2969,4.3012,4.3042,4.3074,4.3103,4.3129,4.3165,4.321,4.3223,4.3265,4.3299,4.3353,4.3374,4.3405,4.3402,4.3412,4.3414,4.3415,4.3415,4.3363,4.3412,4.3412,4.3412,4.3412,4.3412,0,4.2941,4.2969,4.3008,4.3058,4.309,4.3098,4.3136,4.3162,4.32,4.3233,4.3267,4.3312,4.335,4.338,4.3417,4.3436,4.344,4.3445,4.3443,4.3447,4.3416,4.3406,4.3441,4.3441,4.3441,4.3441,4.3441,4.3441,4.2967,4.3015,4.3034,4.3096,4.3122,4.3167,4.3188,4.3216,4.3243,4.3295,4.3327,4.3347,4.3378,4.3417,4.3451,4.3458,4.347,4.3474,4.3482,4.3452,4.3449,4.3446,4.3437,4.3477,4.3477,4.351,4.351,4.351]}]]